User: anonymous   Login
Location: Unspecified
(0.0000°N, 0.0000°E)
Time: 10:09:24
(UTC+00:00)
Language:

OBJECT AA - Orbit

View from above orbital plane
View from above orbital plane
View from above satellite
View from above satellite

Ground track
Ground track

The orbit data is extracted from the following two-line orbital elements,

1 43135U 18004AA  19112.13031879  .00001395  00000-0  61228-4 0  9996
2 43135  97.4928 180.1331 0011311  97.4490 262.8032 15.23606432 70747
Epoch (UTC): 22 April 2019 03:07:39
Eccentricity: 0.0011311
inclination: 97.4928°
perigee height: 487 km
apogee height: 503 km
right ascension of ascending node: 180.1331°
argument of perigee: 97.4490°
revolutions per day: 15.23606432
mean anomaly at epoch: 262.8032°
orbit number at epoch: 7074

The dashed part of the orbit path shows where the satellite is in the earth's shadow,  

DLR